When you browse on this site, cookies collect data to enhance your experience and personalize the content and advertising you see.
Visit our Privacy Policy to learn more. By continuing to use the site, you agree to this use of cookies and data.
  • In United Kingdom
  • List of Countries
  • For 7 days
  • Water Temperature
  • Satellite Maps
  • Weather Map
  • Weather Widgets
  • user-avatar
    Login

    Hourly Weather Hoeryŏng

    Today, 25 June, Tuesday

    Time Temperature Precipitation Wind Pressure Humidity
    00:00 +21°C° 0 mm 0 mps 754 mmHg 61%
    01:00 +21°C° 0 mm 0 mps 754 mmHg 63%
    02:00 +20°C° 0 mm 0 mps 755 mmHg 67%
    03:00 +20°C° 0 mm 0 mps 755 mmHg 68%
    04:00 +20°C° 0 mm 0 mps 755 mmHg 69%
    05:00 +20°C° 0 mm 0 mps 755 mmHg 70%
    06:00 +22°C° 0 mm 0 mps 755 mmHg 63%
    07:00 +26°C° 0 mm 1 mps 755 mmHg 56%
    08:00 +26°C° 0 mm 0 mps 755 mmHg 47%
    09:00 +28°C° 0 mm 0 mps 755 mmHg 42%
    10:00 +30°C° 0 mm 0 mps 755 mmHg 37%
    11:00 +32°C° 0 mm 0 mps 755 mmHg 32%
    12:00 +34°C° 0 mm 1 mps 754 mmHg 31%
    13:00 +35°C° 0 mm 2 mps 754 mmHg 30%
    14:00 +35°C° 0 mm 2 mps 753 mmHg 29%
    15:00 +34°C° 0 mm 3 mps 753 mmHg 32%
    16:00 +33°C° 0 mm 3 mps 753 mmHg 35%
    17:00 +31°C° 0 mm 3 mps 753 mmHg 38%
    18:00 +30°C° 0 mm 3 mps 753 mmHg 41%
    19:00 +28°C° 0 mm 2 mps 753 mmHg 45%
    20:00 +26°C° 0 mm 1 mps 753 mmHg 49%
    21:00 +26°C° 0 mm 1 mps 753 mmHg 51%
    22:00 +25°C° 0 mm 1 mps 754 mmHg 53%
    23:00 +23°C° 0 mm 0 mps 754 mmHg 55%

    Tomorrow, 26 June, Wednesday

    Time Temperature Precipitation Wind Pressure Humidity
    00:00 +24°C° 0 mm 1 mps 753 mmHg 57%
    01:00 +24°C° 0 mm 1 mps 753 mmHg 59%
    02:00 +24°C° 0 mm 1 mps 752 mmHg 61%
    03:00 +23°C° 0 mm 1 mps 752 mmHg 62%
    04:00 +23°C° 0 mm 1 mps 752 mmHg 63%
    05:00 +23°C° 0 mm 1 mps 752 mmHg 64%
    06:00 +25°C° 0 mm 1 mps 752 mmHg 58%
    07:00 +25°C° 0 mm 0 mps 752 mmHg 53%
    08:00 +27°C° 0 mm 0 mps 751 mmHg 47%
    09:00 +30°C° 0 mm 1 mps 751 mmHg 43%
    10:00 +32°C° 0 mm 1 mps 751 mmHg 38%
    11:00 +33°C° 0 mm 1 mps 751 mmHg 34%
    12:00 +34°C° 0 mm 2 mps 750 mmHg 33%
    13:00 +34°C° 0 mm 2 mps 750 mmHg 33%
    14:00 +34°C° 0 mm 2 mps 749 mmHg 33%
    15:00 +32°C° 0 mm 2 mps 749 mmHg 35%
    16:00 +32°C° 0 mm 2 mps 749 mmHg 38%
    17:00 +31°C° 0 mm 2 mps 748 mmHg 41%
    18:00 +28°C° 0.9 mm 1 mps 748 mmHg 53%
    19:00 +26°C° 0.9 mm 1 mps 749 mmHg 66%
    20:00 +23°C° 0.9 mm 1 mps 749 mmHg 78%
    21:00 +23°C° 2.6 mm 1 mps 748 mmHg 81%
    22:00 +23°C° 2.6 mm 1 mps 748 mmHg 84%
    23:00 +21°C° 2.6 mm 2 mps 748 mmHg 87%

    Day after tomorrow, 27 June, Thursday

    Time Temperature Precipitation Wind Pressure Humidity
    00:00 +21°C° 1.4 mm 2 mps 747 mmHg 87%
    01:00 +21°C° 1.4 mm 2 mps 747 mmHg 87%
    02:00 +21°C° 1.4 mm 2 mps 746 mmHg 87%
    03:00 +21°C° 2.7 mm 2 mps 746 mmHg 87%
    04:00 +22°C° 2.7 mm 1 mps 746 mmHg 88%
    05:00 +22°C° 2.7 mm 1 mps 746 mmHg 89%
    06:00 +23°C° 0.3 mm 1 mps 746 mmHg 87%
    07:00 +23°C° 0.3 mm 1 mps 745 mmHg 85%
    08:00 +23°C° 0.3 mm 1 mps 745 mmHg 83%
    09:00 +24°C° 0 mm 1 mps 745 mmHg 80%
    10:00 +25°C° 0 mm 1 mps 745 mmHg 77%
    11:00 +26°C° 0 mm 1 mps 745 mmHg 74%
    12:00 +27°C° 0 mm 1 mps 745 mmHg 72%
    13:00 +27°C° 0 mm 1 mps 744 mmHg 70%
    14:00 +28°C° 0 mm 1 mps 744 mmHg 68%
    15:00 +28°C° 0.1 mm 1 mps 744 mmHg 68%
    16:00 +28°C° 0.1 mm 1 mps 744 mmHg 68%
    17:00 +29°C° 0.1 mm 1 mps 744 mmHg 68%
    18:00 +28°C° 0 mm 1 mps 744 mmHg 72%
    19:00 +27°C° 0 mm 1 mps 744 mmHg 75%
    20:00 +26°C° 0 mm 1 mps 744 mmHg 79%
    21:00 +24°C° 0.2 mm 0 mps 744 mmHg 80%
    22:00 +23°C° 0.2 mm 0 mps 744 mmHg 82%
    23:00 +23°C° 0.2 mm 0 mps 744 mmHg 83%

    28 June, Friday

    Time Temperature Precipitation Wind Pressure Humidity
    00:00 +23°C° 0.1 mm 0 mps 744 mmHg 83%
    01:00 +25°C° 0.1 mm 1 mps 744 mmHg 84%
    02:00 +25°C° 0.1 mm 1 mps 744 mmHg 85%
    03:00 +24°C° 0.4 mm 1 mps 744 mmHg 87%
    04:00 +24°C° 0.4 mm 1 mps 744 mmHg 88%
    05:00 +24°C° 0.4 mm 1 mps 744 mmHg 90%
    06:00 +24°C° 0.6 mm 1 mps 744 mmHg 90%
    07:00 +24°C° 0.6 mm 1 mps 744 mmHg 90%
    08:00 +24°C° 0.6 mm 1 mps 744 mmHg 89%
    09:00 +24°C° 0.3 mm 1 mps 744 mmHg 88%
    10:00 +24°C° 0.3 mm 1 mps 744 mmHg 87%
    11:00 +25°C° 0.3 mm 1 mps 744 mmHg 86%
    12:00 +26°C° 0.1 mm 1 mps 744 mmHg 82%
    13:00 +26°C° 0.1 mm 1 mps 743 mmHg 78%
    14:00 +27°C° 0.1 mm 1 mps 743 mmHg 74%
    15:00 +27°C° 0.3 mm 1 mps 743 mmHg 76%
    16:00 +27°C° 0.3 mm 2 mps 743 mmHg 77%
    17:00 +26°C° 0.3 mm 2 mps 743 mmHg 78%
    18:00 +26°C° 0.1 mm 2 mps 743 mmHg 79%
    19:00 +25°C° 0.1 mm 1 mps 743 mmHg 81%
    20:00 +24°C° 0.1 mm 1 mps 743 mmHg 83%
    21:00 +24°C° 0 mm 1 mps 744 mmHg 83%
    22:00 +24°C° 0 mm 1 mps 744 mmHg 84%
    23:00 +24°C° 0 mm 1 mps 744 mmHg 85%

    29 June, Saturday

    Time Temperature Precipitation Wind Pressure Humidity
    00:00 +23°C° 0 mm 1 mps 743 mmHg 86%
    01:00 +23°C° 0 mm 1 mps 743 mmHg 86%
    02:00 +23°C° 0 mm 1 mps 743 mmHg 87%
    03:00 +23°C° 0 mm 1 mps 743 mmHg 87%
    04:00 +21°C° 0 mm 0 mps 743 mmHg 87%
    05:00 +21°C° 0 mm 0 mps 743 mmHg 87%
    06:00 +22°C° 0 mm 0 mps 742 mmHg 85%
    07:00 +22°C° 0 mm 0 mps 742 mmHg 83%
    08:00 +23°C° 0 mm 0 mps 742 mmHg 82%
    09:00 +26°C° 0 mm 1 mps 742 mmHg 74%
    10:00 +28°C° 0 mm 1 mps 741 mmHg 67%
    11:00 +30°C° 0 mm 1 mps 741 mmHg 60%
    12:00 +30°C° 0.2 mm 1 mps 741 mmHg 59%
    13:00 +30°C° 0.2 mm 2 mps 740 mmHg 58%
    14:00 +30°C° 0.2 mm 2 mps 740 mmHg 57%
    15:00 +29°C° 0.4 mm 3 mps 740 mmHg 61%
    16:00 +28°C° 0.4 mm 3 mps 740 mmHg 65%
    17:00 +27°C° 0.4 mm 3 mps 740 mmHg 69%
    18:00 +26°C° 0 mm 3 mps 740 mmHg 71%
    19:00 +26°C° 0 mm 2 mps 740 mmHg 73%
    20:00 +25°C° 0 mm 1 mps 741 mmHg 75%
    21:00 +24°C° 0 mm 1 mps 741 mmHg 77%
    22:00 +24°C° 0 mm 1 mps 741 mmHg 79%
    23:00 +23°C° 0 mm 1 mps 741 mmHg 81%

    30 June, Sunday

    Time Temperature Precipitation Wind Pressure Humidity
    00:00 +23°C° 0 mm 1 mps 741 mmHg 83%
    01:00 +23°C° 0 mm 1 mps 741 mmHg 84%
    02:00 +23°C° 0 mm 1 mps 741 mmHg 85%
    03:00 +23°C° 0 mm 1 mps 741 mmHg 86%
    04:00 +23°C° 0 mm 1 mps 741 mmHg 87%
    05:00 +23°C° 0 mm 1 mps 742 mmHg 88%
    06:00 +24°C° 0 mm 2 mps 742 mmHg 82%
    07:00 +25°C° 0 mm 2 mps 742 mmHg 76%
    08:00 +26°C° 0 mm 2 mps 742 mmHg 70%
    09:00 +27°C° 0 mm 3 mps 742 mmHg 65%
    10:00 +29°C° 0 mm 3 mps 742 mmHg 60%
    11:00 +30°C° 0 mm 4 mps 742 mmHg 56%
    12:00 +30°C° 0.1 mm 4 mps 741 mmHg 56%
    13:00 +30°C° 0.1 mm 4 mps 741 mmHg 56%
    14:00 +30°C° 0.1 mm 5 mps 741 mmHg 56%
    15:00 +30°C° 0.1 mm 4 mps 741 mmHg 59%
    16:00 +29°C° 0.1 mm 4 mps 741 mmHg 61%
    17:00 +29°C° 0.1 mm 3 mps 741 mmHg 64%
    18:00 +27°C° 0.2 mm 3 mps 742 mmHg 69%
    19:00 +26°C° 0.2 mm 2 mps 742 mmHg 75%
    20:00 +25°C° 0.2 mm 2 mps 742 mmHg 80%
    21:00 +24°C° 0.1 mm 1 mps 743 mmHg 81%
    22:00 +24°C° 0.1 mm 1 mps 743 mmHg 82%
    23:00 +23°C° 0.1 mm 1 mps 743 mmHg 83%
    Show more